Location: Le Gr�zie
(43.6000°N, 13.5000°E)
Time: 00:39:55
(UTC+00:00)

Cosmos 2369 - Pass Details

Date: 09 April 2020
Orbit: 840 x 855 km, 71.0° (Epoch: 05 June)

Event Time Altitude Azimuth Distance (km) Brightness Sun altitude
Rises 21:08:21 0° 332° (NNW) 3,403 8.0 -31.8°
Reaches altitude 10° 21:10:49 10° 330° (NNW) 2,465 7.0 -32.0°
Enters shadow 21:15:12 52° 306° (NW) 1,037 4.3 -32.5°
